{"data":{"norad_id":60544,"intl_designator":"2024-149CE","name":"CAPELLA-15 (ACADIA-5)","alt_names":[],"object_type":"PAYLOAD","status":"ACTIVE","operator":null,"country":"US","launch_date":"2024-08-16","launch_site_code":"AFWTR","launch_vehicle":null,"mission":null,"orbit_class":"UNKNOWN","rcs_meters":null,"size_class":null,"mass_kg":null,"dimensions":null,"purposes":[],"wikipedia_slug":null,"has_3d_model":false,"image_url":null,"decayed_at":null,"tle_current":{"epoch":"2026-05-25T04:35:36.695616Z","epoch_age_seconds":58753,"freshness":"FRESH","line1":"1 60544U 24149CE  26145.19139694  .00005444  00000+0  53562-3 0  9999","line2":"2 60544  97.6770 218.6679 0005079 144.4189 215.7370 14.92487788 96422","mean_motion":14.92487788,"eccentricity":0.0005079,"inclination_deg":97.677,"raan_deg":218.6679,"arg_perigee_deg":144.4189,"mean_anomaly_deg":215.737,"bstar":0.00053562,"rev_number":9642,"period_min":96.483201509452,"perigee_km":586.64214843012,"apogee_km":593.72056621749,"semimajor_km":6968.3183573238,"source":"CELESTRAK","updated_at":"2026-05-25T13:38:02.150102Z"}}}